2023/08/24 00:00:00, 0.2,21.4
2023/08/24 00:10:00, 0.2,21.9
2023/08/24 00:20:00, 0.2,21.5
2023/08/24 00:30:00, 0.2,21.6
2023/08/24 00:40:00, 0.2,21.8
2023/08/24 00:50:00, 0.2,21.7
2023/08/24 01:00:00, 0.3,21.7
2023/08/24 01:10:00, 0.2,21.5
2023/08/24 01:20:00, 0.2,21.3
2023/08/24 01:30:00, 0.2,21.2
2023/08/24 01:40:00, 0.2,21.0
2023/08/24 01:50:00, 0.3,21.0
2023/08/24 02:00:00, 0.3,20.8
2023/08/24 02:10:00, 0.3,20.7
2023/08/24 02:20:00, 0.3,20.9
2023/08/24 02:30:00, 0.3,20.8
2023/08/24 02:40:00, 0.3,20.4
2023/08/24 02:50:00, 0.3,20.5
2023/08/24 03:00:00, 0.2,20.4
2023/08/24 03:10:00, 0.2,20.4
2023/08/24 03:20:00, 0.2,20.4
2023/08/24 03:30:00, 0.2,20.2
2023/08/24 03:40:00, 0.2,20.2
2023/08/24 03:50:00, 0.3,20.3
2023/08/24 04:00:00, 0.3,19.8
2023/08/24 04:10:00, 0.3,20.0
2023/08/24 04:20:00, 0.3,20.2
2023/08/24 04:30:00, 0.2,20.2
2023/08/24 04:40:00, 0.2,20.0
2023/08/24 04:50:00, 0.2,19.9
2023/08/24 05:00:00, 0.3,20.0
2023/08/24 05:10:00, 0.2,19.9
2023/08/24 05:20:00, 0.2,19.8
2023/08/24 05:30:00, 0.2,19.7
2023/08/24 05:40:00, 0.2,19.7
2023/08/24 05:50:00, 0.3,19.9
2023/08/24 06:00:00, 0.2,20.0
2023/08/24 06:10:00, 0.2,20.2
2023/08/24 06:20:00, 0.2,20.2
2023/08/24 06:30:00, 0.2,20.3
2023/08/24 06:40:00, 0.2,20.5
2023/08/24 06:50:00, 0.2,20.8
2023/08/24 07:00:00, 0.3,21.1
2023/08/24 07:10:00, 0.2,21.9
2023/08/24 07:20:00, 0.2,22.4
2023/08/24 07:30:00, 0.2,22.8
2023/08/24 07:40:00, 0.2,23.2
2023/08/24 07:50:00, 0.3,23.9
2023/08/24 08:00:00, 0.3,25.3
2023/08/24 08:10:00, 0.3,24.3
2023/08/24 08:20:00, 0.3,24.3
2023/08/24 08:30:00, 0.3,24.7
2023/08/24 08:40:00, 0.3,24.7
2023/08/24 08:50:00, 0.2,25.5
2023/08/24 09:00:00, 0.2,26.7
2023/08/24 09:10:00, 0.3,27.9
2023/08/24 09:20:00, 0.3,28.3
2023/08/24 09:30:00, 0.3,29.2
2023/08/24 09:40:00, 0.3,29.6
2023/08/24 09:50:00, 0.3,29.9
2023/08/24 10:00:00, 0.2,30.5
2023/08/24 10:10:00, 0.3,30.8
2023/08/24 10:20:00, 0.2,30.6
2023/08/24 10:30:00, 0.3,31.4
2023/08/24 10:40:00, 0.3,31.8
2023/08/24 10:50:00, 0.3,32.5
2023/08/24 11:00:00, 0.5,32.8
2023/08/24 11:10:00, 0.5,31.5
2023/08/24 11:20:00, 0.5,31.2
2023/08/24 11:30:00, 0.4,31.2
2023/08/24 11:40:00, 0.5,31.1
2023/08/24 11:50:00, 0.4,30.9
2023/08/24 12:00:00, 0.5,32.3
2023/08/24 12:10:00, 0.4,31.5
2023/08/24 12:20:00, 0.5,30.7
2023/08/24 12:30:00, 0.5,31.1
2023/08/24 12:40:00, 0.5,30.6
2023/08/24 12:50:00, 0.5,31.4
2023/08/24 13:00:00, 0.5,31.2
2023/08/24 13:10:00, 0.4,31.0
2023/08/24 13:20:00, 0.5,33.5
2023/08/24 13:30:00, 0.5,33.8
2023/08/24 13:40:00, 0.5,32.5
2023/08/24 13:50:00, 0.5,33.5
2023/08/24 14:00:00, 0.5,33.2
2023/08/24 14:10:00, 0.5,33.5
2023/08/24 14:20:00, 0.5,33.7
2023/08/24 14:30:00, 0.5,33.0
2023/08/24 14:40:00, 0.4,33.1
2023/08/24 14:50:00, 0.4,34.3
2023/08/24 15:00:00, 0.5,32.7
2023/08/24 15:10:00, 0.4,32.4
2023/08/24 15:20:00, 0.4,33.5
2023/08/24 15:30:00, 0.4,33.6
2023/08/24 15:40:00, 0.4,32.8
2023/08/24 15:50:00, 0.4,34.5
2023/08/24 16:00:00, 0.4,33.8
2023/08/24 16:10:00, 0.4,37.6
2023/08/24 16:20:00, 0.4,37.2
2023/08/24 16:30:00, 0.4,35.6
2023/08/24 16:40:00, 0.4,37.4
2023/08/24 16:50:00, 0.4,34.7
2023/08/24 17:00:00, 0.3,33.1
2023/08/24 17:10:00, 0.3,32.4
2023/08/24 17:20:00, 0.3,30.4
2023/08/24 17:30:00, 0.2,29.9
2023/08/24 17:40:00, 0.1,29.7
2023/08/24 17:50:00, 0.1,29.2
2023/08/24 18:00:00, 0.2,28.5
2023/08/24 18:10:00, 0.1,27.9
2023/08/24 18:20:00, 0.1,28.0
2023/08/24 18:30:00, 0.1,27.7
2023/08/24 18:40:00, 0.2,27.6
2023/08/24 18:50:00, 0.2,27.3
2023/08/24 19:00:00, 0.2,26.9
2023/08/24 19:10:00, 0.2,26.5
2023/08/24 19:20:00, 0.2,26.1
2023/08/24 19:30:00, 0.2,25.9
2023/08/24 19:40:00, 0.2,25.8
2023/08/24 19:50:00, 0.2,25.6
2023/08/24 20:00:00, 0.2,25.6
2023/08/24 20:10:00, 0.2,25.1
2023/08/24 20:20:00, 0.2,25.2
2023/08/24 20:30:00, 0.2,25.5
2023/08/24 20:40:00, 0.2,25.0
2023/08/24 20:50:00, 0.2,25.2
2023/08/24 21:00:00, 0.2,25.3
2023/08/24 21:10:00, 0.2,25.2
2023/08/24 21:20:00, 0.2,25.1
2023/08/24 21:30:00, 0.2,24.8
2023/08/24 21:40:00, 0.2,24.4
2023/08/24 21:50:00, 0.2,24.2
2023/08/24 22:00:00, 0.2,24.1
2023/08/24 22:10:00, 0.2,24.0
2023/08/24 22:20:00, 0.2,24.0
2023/08/24 22:30:00, 0.2,23.9
2023/08/24 22:40:00, 0.2,23.8
2023/08/24 22:50:00, 0.2,23.7
2023/08/24 23:00:00, 0.2,23.8
2023/08/24 23:10:00, 0.2,23.9
2023/08/24 23:20:00, 0.2,24.0
2023/08/24 23:30:00, 0.2,24.1
2023/08/24 23:40:00, 0.2,24.5
2023/08/24 23:50:00, 0.2,24.7
